www.pogodaiklimat.ru

Погода и климат >> Архив погоды >> Австралия >> Западная Австралия >> Мандора


ПОГОДА в Мандоре

  • Прогноз погоды в Мандоре
  • Монитор погоды в Мандоре

АРХИВ ПОГОДЫ в Мандоре

Время (UTC), дата Ветер
(напр.,м/с)
 
Видим.   Явления Облачность Т
(С)
Тd
(С)
f
(%)
Тe
(С)
Тes
(С)
Комфортность P
(гПа)
Po
(гПа)
Тmin
(С)
Tmax
(С)
R
(мм)
R24
(мм)
S
(см)
16 16.08 СЗ 2 н/о н/о +15.3 +15.1 99 +15 +15 1017.6 1016.7
18 16.08 Ю 3 н/о н/о +17.5 +16.0 91 +18 +18 1017.2 1016.3
19 16.08 ЮЗ 2 н/о н/о +15.0 +13.7 92 +15 +15 1017.0 1016.1
21 16.08 ЮВ 2 н/о н/о +12.1 +11.6 97 +11 +11 1017.2 1016.3
22 16.08 ЮВ 2 н/о н/о +11.5 +11.5 100 +11 +11 1017.6 1016.7
00 17.08 ЮВ 3 н/о н/о +20.1 +10.8 55 +22 +22 комфорт 1019.1 1018.2
01 17.08 ЮВ 4 н/о н/о +24.1 +7.7 35 +24 +24 комфорт 1019.1 1018.2 +11.0
03 17.08 ЮВ 3 н/о н/о +27.9 +6.6 26 +27 +27 жарко 1018.2 1017.3
04 17.08 Ю 3 н/о н/о +29.9 +7.2 24 +29 +29 жарко 1017.5 1016.6
06 17.08 Ю 5 н/о н/о +30.2 +3.3 18 +28 +28 жарко 1015.8 1014.9
07 17.08 З 3 н/о н/о +29.7 +8.7 27 +29 +29 жарко 1015.7 1014.8
09 17.08 СЗ 4 н/о н/о +25.2 +10.6 40 +26 +26 жарко 1015.9 1015.0
10 17.08 СЗ 3 н/о н/о +21.3 +13.2 60 +24 +24 комфорт 1016.5 1015.6
12 17.08 Ю 3 н/о н/о +15.8 +1.9 39 +15 +15 1018.2 1017.3
13 17.08 ЮВ 3 н/о н/о +16.7 -1.9 28 +17 +17 1018.7 1017.8 +32.0
15 17.08 ЮВ 3 н/о н/о +15.3 -2.6 29 +15 +15 1019.2 1018.3
16 17.08 Ю 4 н/о н/о +15.9 -3.6 26 +15 +15 1019.3 1018.4
18 17.08 ЮВ 4 н/о н/о +17.1 -3.6 24 +17 +17 1018.9 1018.0
19 17.08 ЮВ 4 н/о н/о +17.6 -3.2 24 +17 +17 1018.8 1017.9
21 17.08 Ю 5 н/о н/о +15.2 -2.2 30 +14 +14 1019.4 1018.5
22 17.08 ЮВ 5 н/о н/о +17.2 -1.9 27 +17 +17 1020.0 1019.1
00 18.08 ЮВ 7 н/о н/о +19.4 -1.7 24 +19 +19 1020.9 1020.0
01 18.08 ЮВ 7 н/о н/о +21.6 -2.3 20 +21 +21 комфорт 1021.5 1020.6 +14.2
03 18.08 ЮВ 8 н/о н/о +25.1 -3.3 15 +23 +23 комфорт 1020.9 1020.0
04 18.08 ЮВ 6 н/о н/о +26.3 -4.3 13 +24 +24 комфорт 1020.0 1019.1
06 18.08 ЮВ 8 н/о н/о +27.4 -6.9 10 +24 +24 комфорт 1018.3 1017.4
07 18.08 ЮВ 6 н/о н/о +28.0 -6.4 10 +25 +25 комфорт 1017.6 1016.7
09 18.08 ЮВ 6 н/о н/о +26.1 -7.9 10 +23 +23 комфорт 1018.0 1017.1
10 18.08 ЮВ 4 н/о н/о +23.9 -7.2 12 +22 +22 комфорт 1018.7 1017.8
12 18.08 Ю 4 н/о н/о +19.5 -6.2 17 +19 +19 1020.6 1019.7
13 18.08 Ю 5 н/о н/о +19.2 -6.4 17 +19 +19 1021.1 1020.2 +28.5
15 18.08 ЮВ 4 н/о н/о +18.6 -5.4 19 +18 +18 1021.7 1020.8
16 18.08 Ю 4 н/о н/о +17.3 -4.6 22 +17 +17 1021.6 1020.7
18 18.08 ЮВ 4 н/о н/о +15.8 -4.7 24 +15 +15 1021.2 1020.3
19 18.08 ЮВ 5 н/о н/о +16.4 -6.0 21 +16 +16 1021.0 1020.1
21 18.08 ЮВ 6 н/о н/о +15.5 -6.1 22 +14 +14 1021.4 1020.5
22 18.08 ЮВ 6 н/о н/о +15.1 -5.9 23 +14 +14 1021.7 1020.8
00 19.08 ЮВ 8 н/о н/о +17.8 -5.4 20 +17 +17 1022.1 1021.2
01 19.08 В 8 н/о н/о +20.7 -6.0 16 +20 +20 1022.5 1021.6 +15.0
03 19.08 В 8 н/о н/о +24.4 -7.9 11 +22 +22 комфорт 1021.9 1021.0
04 19.08 ЮВ 7 н/о н/о +25.5 -8.3 10 +23 +23 комфорт 1020.8 1019.9
06 19.08 ЮВ 6 н/о н/о +27.6 -8.1 9 +24 +24 комфорт 1018.9 1018.0
07 19.08 ЮВ 6 н/о н/о +27.8 -7.9 9 +24 +24 комфорт 1018.3 1017.4
09 19.08 ЮВ 6 н/о н/о +26.2 -7.8 10 +23 +23 комфорт 1018.8 1017.9
10 19.08 ЮВ 5 н/о н/о +24.2 -8.1 11 +22 +22 комфорт 1019.5 1018.6
12 19.08 ЮВ 4 н/о н/о +21.7 -6.0 15 +20 +20 1021.3 1020.4
13 19.08 ЮВ 5 н/о н/о +21.2 -6.4 15 +20 +20 1021.8 1020.9 +28.3
15 19.08 ЮВ 6 н/о н/о +20.5 -6.1 16 +20 +20 1021.6 1020.7
16 19.08 ЮВ 5 н/о н/о +19.9 -6.6 16 +19 +19 1021.5 1020.6
18 19.08 ЮВ 6 н/о н/о +18.8 -6.7 17 +18 +18 1021.1 1020.2
19 19.08 ЮВ 7 н/о н/о +18.1 -6.6 18 +17 +17 1020.7 1019.8
21 19.08 ЮВ 6 н/о н/о +16.9 -6.8 19 +16 +16 1021.1 1020.2
22 19.08 ЮВ 6 н/о н/о +16.8 -6.9 19 +16 +16 1021.7 1020.8
00 20.08 ЮВ 7 н/о н/о +19.3 -5.6 18 +19 +19 1022.7 1021.8
01 20.08 В 8 н/о н/о +21.9 -5.9 15 +21 +21 комфорт 1022.7 1021.8 +16.7
03 20.08 В 7 н/о н/о +26.5 -5.2 12 +24 +24 комфорт 1021.7 1020.8
04 20.08 В 7 н/о н/о +28.1 -5.1 11 +25 +25 комфорт 1020.7 1019.8
06 20.08 ЮВ 7 н/о н/о +29.6 -5.2 10 +26 +26 жарко 1018.7 1017.8
07 20.08 ЮВ 6 н/о н/о +30.1 -4.8 10 +27 +27 жарко 1018.1 1017.2
09 20.08 ЮВ 5 н/о н/о +28.1 -5.1 11 +25 +25 комфорт 1018.1 1017.2
10 20.08 ЮВ 5 н/о н/о +26.4 -5.3 12 +24 +24 комфорт 1018.6 1017.7
12 20.08 ЮВ 4 н/о н/о +23.5 -4.6 15 +22 +22 комфорт 1020.2 1019.3
13 20.08 ЮВ 4 н/о н/о +22.8 -6.1 14 +21 +21 комфорт 1020.6 1019.7 +30.8
15 20.08 ЮВ 5 н/о н/о +21.2 -8.3 13 +20 +20 1020.2 1019.3
16 20.08 ЮВ 5 н/о н/о +20.3 -10.0 12 +20 +20 1020.2 1019.3
18 20.08 ЮВ 5 н/о н/о +19.6 -10.5 12 +19 +19 1019.7 1018.8
19 20.08 ЮВ 6 н/о н/о +18.7 -10.2 13 +18 +18 1019.5 1018.6
21 20.08 ЮВ 5 н/о н/о +18.1 -8.1 16 +18 +18 1019.9 1019.0
22 20.08 ЮВ 5 н/о н/о +17.1 -8.1 17 +17 +17 1020.5 1019.6
00 21.08 ЮВ 6 н/о н/о +20.6 -6.9 15 +20 +20 1021.1 1020.2
01 21.08 В 7 н/о н/о +23.2 -7.7 12 +21 +21 комфорт 1021.2 1020.3 +16.9
03 21.08 В 6 н/о н/о +27.9 -7.9 9 +24 +24 комфорт 1019.8 1018.9
04 21.08 В 7 н/о н/о +28.6 -7.3 9 +25 +25 комфорт 1018.9 1018.0
06 21.08 В 5 н/о н/о +30.1 -7.7 8 +26 +26 жарко 1017.3 1016.4
07 21.08 ЮВ 5 н/о н/о +30.1 -7.7 8 +26 +26 жарко 1016.4 1015.5
09 21.08 ЮВ 5 н/о н/о +28.4 -10.7 7 +25 +25 комфорт 1016.4 1015.5
10 21.08 ЮВ 4 н/о н/о +25.0 -10.0 9 +22 +22 комфорт 1016.9 1016.0
12 21.08 ЮВ 3 н/о н/о +20.2 -10.1 12 +20 +20 1018.6 1017.7
13 21.08 ЮВ 3 н/о н/о +20.0 -9.2 13 +20 +20 1019.3 1018.4 +30.9
15 21.08 ЮВ 3 н/о н/о +17.0 -9.0 16 +17 +17 1019.4 1018.5
16 21.08 ЮВ 4 н/о н/о +18.2 -9.7 14 +18 +18 1019.4 1018.5
18 21.08 ЮВ 3 н/о н/о +15.4 -8.8 18 +15 +15 1018.6 1017.7
19 21.08 ЮВ 4 н/о н/о +16.0 -9.8 16 +16 +16 1018.3 1017.4
21 21.08 ЮВ 3 н/о н/о +13.4 -9.1 20 +13 +13 1018.9 1018.0
22 21.08 ЮВ 3 н/о н/о +13.9 -10.0 18 +13 +13 1019.6 1018.7
00 22.08 В 6 н/о н/о +20.8 -9.6 12 +20 +20 1020.2 1019.3
01 22.08 В 5 н/о н/о +24.8 -10.2 9 +22 +22 комфорт 1020.2 1019.3 +13.3
03 22.08 В 4 н/о н/о +29.1 -10.2 7 +25 +25 комфорт 1019.2 1018.3
04 22.08 СВ 5 н/о н/о +30.8 -10.9 6 +27 +27 жарко 1018.2 1017.3
06 22.08 С 6 н/о н/о +30.1 -9.4 7 +26 +26 жарко 1016.6 1015.7
07 22.08 С 5 н/о н/о +29.9 -9.6 7 +26 +26 жарко 1016.5 1015.6
09 22.08 С 4 н/о н/о +26.2 -4.4 13 +24 +24 комфорт 1016.7 1015.8
10 22.08 З 2 н/о н/о +21.3 +1.0 26 +21 +21 комфорт 1017.2 1016.3
12 22.08 ЮЗ 3 н/о н/о +16.0 +1.0 36 +16 +16 1018.3 1017.4
13 22.08 ЮЗ 4 н/о н/о +14.8 -1.3 33 +14 +14 1018.5 1017.6 +32.2
15 22.08 Ю 3 н/о н/о +15.3 -5.7 23 +15 +15 1018.1 1017.2
16 22.08 Ю 4 н/о н/о +15.0 -5.9 23 +14 +14 1018.0 1017.1
18 22.08 ЮВ 3 н/о н/о +14.6 -6.8 22 +14 +14 1017.2 1016.3
19 22.08 ЮВ 3 н/о н/о +14.1 -7.9 21 +14 +14 1017.3 1016.4
21 22.08 ЮВ 3 н/о н/о +11.9 -8.0 24 +11 +11 1017.7 1016.8
22 22.08 ЮВ 3 н/о н/о +13.0 -8.8 21 +12 +12 1018.3 1017.4
00 23.08 В 4 н/о н/о +20.2 -8.1 14 +20 +20 1019.1 1018.2
01 23.08 В 4 н/о н/о +25.2 -9.9 9 +22 +22 комфорт 1019.0 1018.1 +11.6
03 23.08 В 4 н/о н/о +30.2 -9.4 7 +26 +26 жарко 1017.9 1017.0
04 23.08 СВ 3 н/о н/о +32.4 -9.7 6 +28 +28 жарко 1017.1 1016.2
06 23.08 СЗ 5 н/о н/о +31.2 -8.6 7 +27 +27 жарко 1015.5 1014.6
07 23.08 СЗ 5 н/о н/о +30.7 -7.3 8 +27 +27 жарко 1015.0 1014.1
09 23.08 СЗ 4 н/о н/о +27.2 -0.8 16 +25 +25 комфорт 1015.2 1014.3
10 23.08 З 2 н/о н/о +22.4 +4.0 30 +22 +22 комфорт 1015.6 1014.7
12 23.08 ЮЗ 3 н/о н/о +17.0 +7.9 55 +17 +17 1016.8 1015.9
13 23.08 ЮЗ 4 н/о н/о +17.7 +7.4 51 +18 +18 1017.2 1016.3 +32.5

 

Местоположение метеостанции Мандора (Западная Австралия, Австралия): широта -19.73 долгота 120.85 высота над уровнем моря 8 м.

В архиве по умолчанию представлена погода в Мандоре за последнюю неделю. Архивные данные за месяц целиком и за предыдущие месяцы, начиная с января 2011 года, Вы можете получить, выбрав интересующий диапазон дат из раскрывающегося списка и нажав кнопку "Ввод!".


*Определитесь, кто Вы:
робот инопланетянин человек

Внимание! Время в таблицах - всемирное. Для получения местного времени необходимо прибавить поправку, которая равна 8 ч.

Смотрите также архив погоды в соседних городах и на ближайших метеорологических станциях:

Погода в Марбл-баре (Западная Австралия, Австралия) (198 км)
Погода в Порт-Хедленде Apardoo (Западная Австралия, Австралия) (242 км)
Погода в Бруме (Западная Австралия, Австралия) (246 км)
Погода в Робак Запад (Западная Австралия, Австралия) (256 км)
Погода в Телфере (Западная Австралия, Австралия) (262 км)
Погода в Роули Шоалс (Западная Австралия, Австралия) (316 км)
Погода на Базе ВВС Curtin (Западная Австралия, Австралия) (394 км)
Погода в Дерби (Северная территория, Австралия) (397 км)
Погода в Роборн аэропорту (Западная Австралия, Австралия) (402 км)
Погода в Ньюмане (Западная Австралия, Австралия) (423 км)

Пояснения к столбцам:

Ветер - указаны скорость ветра в м/с - средняя за 10 мин, порывы в срок и между сроками (в фигурных скобках) и направление, откуда дует ветер: С - северный, СВ - северо-восточный, В - восточный, ЮВ - юго-восточный, Ю - южный, ЮЗ - юго-западный, З - западный, СЗ - северо-западный.
Видимость - горизонтальная дальность видимости в метрах или километрах. При видимости от 1 до 10 км при отсутствии осадков обычно наблюдается дымка, при ухудшении видимости до 1 км и менее - туман. В сухую погоду видимость может ухудшаться дымом, пылью или мглою.
Явления - указаны атмосферные явления, наблюдавшиеся в срок или в последний час перед сроком; фигурными скобками обозначены явления, наблюдавшиеся между сроками (за 1-3 часа до срока); квадратными скобками обозначены град или гололедные отложения с указанием их диаметра в мм.
Облачность - указаны через наклонную черту общая и нижняя облачность в баллах и высота нижней границы облаков в метрах; квадратными скобками обозначены формы облаков: Ci - перистые, Cs - перисто-слоистые, Cc - перисто-кучевые, Ac - высококучевые, As - высокослоистые, Sc - слоисто-кучевые, Ns - слоисто-дождевые, Cu - кучевые, Cb - кучево-дождевые. Подробнее классификацию облаков см. в Атласе облаков (PDF).
T - Температура воздуха - температура, измеренная на высоте 2 м над землей.
Td - Температура точки росы - температура, при понижении до которой содержащийся в воздухе водяной пар достигнет насыщения.
f - Относительная влажность воздуха - влажноcть воздуха, измеренная на высоте 2 м над землей.
Te - Эффективная температура - температура, которую ощущает одетый по сезону человек в тени. Характеристика душности погоды. При расчете учитывается влияние влажности воздуха и скорости ветра на теплоощущения человека.
Tes - Эффективная температура на солнце - температура, которую ощущает человек, с поправкой на солнечный нагрев. Характеристика знойности погоды. Зависит от высоты солнца над горизонтом, облачности и скорости ветра. Ночью, в пасмурную погоду, а также при ветре 12 м/с и более поправка равна нулю.
P - Атмосферное давление - приведенное к уровню моря атмосферное давление.
Po - Атмосферное давление - измеренное на уровне метеостанции атмосферное давление.
Tmin - Минимальная температура - минимум температуры воздуха на высоте 2 м над землей.
Tmax - Максимальная температура - максимум температуры воздуха на высоте 2 м над землей.
R - Количество осадков - Количество выпавших осадков за период времени, мм. При наведении курсора мыши на число - период времени, за который выпало указанное количество осадков.
R24 - Количество осадков - Количество выпавших осадков за 24 часа, мм.
S - Снежный покров - Высота снежного покрова, см. При наведении курсора мыши на число - состояние снежного покрова и степень покрытия местности в баллах.